Weather reports worldwide

Advertisment
Waddington, United Kingdom (3377): temperature & dewpoint: 18.10.2020 05:00:00 - 24.10.2020 05:00:00 (BST)Waddington, United Kingdom (3377): temperature -20cm & temperature -100cm: 18.10.2020 05:00:00 - 24.10.2020 05:00:00 (BST)Waddington, United Kingdom (3377): wind speed & gusts: 18.10.2020 05:00:00 - 24.10.2020 05:00:00 (BST)Waddington, United Kingdom (3377): wind direction: 18.10.2020 05:00:00 - 24.10.2020 05:00:00 (BST)Waddington, United Kingdom (3377): reduced air pressure: 18.10.2020 05:00:00 - 24.10.2020 05:00:00 (BST)Waddington, United Kingdom (3377): visibility: 18.10.2020 05:00:00 - 24.10.2020 05:00:00 (BST)Waddington, United Kingdom (3377): sunshine duration: 18.10.2020 05:00:00 - 24.10.2020 05:00:00 (BST)Waddington, United Kingdom (3377): precipitation: 18.10.2020 05:00:00 - 24.10.2020 05:00:00 (BST)
Date & Time tt [°C] td [°C] tt -20cm [°C] tt -100cm [°C] ff [km/h] ff [kn] fx [km/h] fx [kn] dd ppp [hPa] vv [km] sd [min] rr [mm]
24.10.2020 05:00:00 - - - - - - - - - - - - -
24.10.2020 04:00:00 5,8 4,5 - - 21 11 - - SSE 1004,7 23 0 0,0
24.10.2020 03:00:00 6,7 4,5 - - 22 12 - - S 1006,1 23 0 0,0
24.10.2020 02:00:00 6,2 3,5 - - 18 10 - - SSW 1006,7 25 0 0,0
24.10.2020 01:00:00 6,8 3,9 - - 18 10 - - SSW 1007,1 10 - 0,0
24.10.2020 00:00:00 7,2 4,4 - - 21 11 - - SSW 1007,6 24 0 0,0
23.10.2020 23:00:00 7,3 4,9 - - 21 11 - - SSW 1007,7 10 0 0,0
23.10.2020 22:00:00 6,6 4,9 - - 11 6 - - S 1007,9 10 0 0,0
23.10.2020 21:00:00 7,6 4,7 - - 9 5 - - WSW 1007,5 10 0 0,0
23.10.2020 20:00:00 7,2 4,3 - - 8 4 - - SW 1007,1 10 0 0,0
23.10.2020 19:00:00 9,1 5,3 - - 11 6 - - WSW 1006,6 29 0 0,0
23.10.2020 18:00:00 10,3 5,9 - - 11 6 - - W 1005,8 30 12 0,0
23.10.2020 17:00:00 12,2 8,8 - - 16 9 - - WSW 1004,8 10 6 0,0
23.10.2020 16:00:00 12,4 9,3 - - 22 12 - - SW 1004,2 10 0 0,0
23.10.2020 15:00:00 12,4 9,7 - - 24 13 - - SW 1003,9 10 6 0,0
23.10.2020 14:00:00 11,8 10,6 - - 15 8 - - SSW 1004,3 10 6 0,2
23.10.2020 13:00:00 10,9 9,5 - - 13 7 - - SW 1004,9 10 0 0,0
23.10.2020 12:00:00 10,6 9,6 - - 16 9 - - WSW 1005,5 10 0 0,0
23.10.2020 11:00:00 10,3 9,8 - - 15 8 - - WSW 1005,2 9 0 0,2
23.10.2020 10:00:00 9,6 9,2 11,2 12,5 18 10 - - SW 1005,2 10 0 0,0
23.10.2020 09:00:00 8,1 7,7 - - 8 4 - - S 1005,3 5 0 0,4
23.10.2020 08:00:00 7,4 7,0 - - 11 6 - - SE 1005,4 6 0 0,0
23.10.2020 07:00:00 7,5 6,8 - - 9 5 - - S 1006,1 5 0 0,2
23.10.2020 06:00:00 7,6 6,2 - - 8 4 - - S 1006,8 10 0 0,0
23.10.2020 05:00:00 7,3 5,6 - - 8 4 - - S 1007,0 10 0 0,0
23.10.2020 04:00:00 6,9 4,7 - - 8 4 - - S 1007,8 22 0 0,0
23.10.2020 03:00:00 6,6 4,2 - - 9 5 - - SSW 1008,5 23 0 0,0
23.10.2020 02:00:00 6,5 3,0 - - 9 5 - - SSW 1008,9 30 0 0,0
23.10.2020 01:00:00 6,9 3,3 - - 11 6 - - SW 1009,0 10 - 0,0
23.10.2020 00:00:00 6,7 4,1 - - 13 7 - - SSW 1009,2 26 0 0,0
22.10.2020 23:00:00 7,5 4,8 - - 13 7 - - SW 1009,4 26 0 0,0
22.10.2020 22:00:00 7,6 5,4 - - 9 5 - - SW 1009,3 25 0 0,0
22.10.2020 21:00:00 8,4 6,1 - - 9 5 - - SW 1009,1 30 0 0,0
22.10.2020 20:00:00 9,0 5,8 - - 11 6 - - W 1008,9 10 0 0,0
22.10.2020 19:00:00 10,5 7,1 - - 9 5 - - W 1008,5 30 0 0,0
22.10.2020 18:00:00 10,9 6,9 - - 11 6 - - W 1007,8 10 0 0,0
22.10.2020 17:00:00 11,7 6,4 - - 15 8 - - W 1007,1 30 0 0,0
22.10.2020 16:00:00 12,3 6,0 - - 28 15 46 25 WSW 1006,6 35 30 0,0
22.10.2020 15:00:00 12,4 6,0 - - 28 15 - - WSW 1006,1 30 30 0,0
22.10.2020 14:00:00 12,0 5,9 - - 26 14 46 25 WSW 1006,0 10 12 0,0
22.10.2020 13:00:00 12,3 6,8 - - 24 13 - - WSW 1005,8 40 36 0,0
22.10.2020 12:00:00 12,2 6,5 - - 22 12 - - WSW 1005,5 10 60 0,0
22.10.2020 11:00:00 11,6 6,6 - - 26 14 - - WSW 1005,0 10 60 0,0
22.10.2020 10:00:00 10,7 6,6 12,0 12,5 26 14 - - WSW 1004,9 10 60 0,0
22.10.2020 09:00:00 10,0 6,4 - - 22 12 - - WSW 1004,5 35 42 0,0
22.10.2020 08:00:00 10,1 6,5 - - 22 12 - - WSW 1003,3 10 0 0,0
22.10.2020 07:00:00 11,0 8,4 - - 18 10 - - WSW 1002,4 10 0 0,0
22.10.2020 06:00:00 11,1 10,1 - - 21 11 - - SW 1002,1 27 0 0,0
22.10.2020 05:00:00 10,7 10,1 - - 16 9 - - SW 1001,8 22 0 0,0
22.10.2020 04:00:00 10,8 10,3 - - 18 10 - - SW 1001,1 23 0 0,0
22.10.2020 03:00:00 10,9 10,4 - - 21 11 - - SW 1000,7 10 0 0,0
22.10.2020 02:00:00 11,2 10,7 - - 21 11 - - SW 1000,1 21 0 1,2
22.10.2020 01:00:00 11,3 10,7 - - 18 10 - - SW 999,8 3,6 - 1,4
22.10.2020 00:00:00 11,7 10,7 - - 16 9 - - SSW 999,6 28 0 0,2
21.10.2020 23:00:00 12,1 10,6 - - 21 11 - - SW 999,5 19 0 0,0
21.10.2020 22:00:00 12,9 12,0 - - 16 9 - - SW 999,0 10 0 0,0
21.10.2020 21:00:00 13,3 12,3 - - 18 10 - - SW 998,2 10 0 0,0
21.10.2020 20:00:00 13,6 12,6 - - 21 11 - - SW 997,7 19 0 0,2
21.10.2020 19:00:00 13,7 13,0 - - 21 11 - - SW 996,9 8 0 0,2
21.10.2020 18:00:00 13,8 13,2 - - 16 9 - - SW 995,5 6 0 0,2
21.10.2020 17:00:00 13,7 12,9 - - 15 8 - - SW 994,4 10 0 0,2
21.10.2020 16:00:00 14,1 13,2 - - 11 6 - - WSW 993,5 10 0 0,0
21.10.2020 15:00:00 14,0 13,3 - - 13 7 - - W 992,8 10 0 0,2
21.10.2020 14:00:00 13,7 13,3 - - 9 5 - - NW 992,2 8 0 0,4
21.10.2020 13:00:00 13,2 12,9 - - 5 3 - - N 992,3 8 0 1,0
21.10.2020 12:00:00 13,1 12,8 - - 5 3 - - ENE 992,7 2,0 0 1,0
21.10.2020 11:00:00 13,2 12,8 - - 9 5 - - E 993,3 0,8 0 0,4
21.10.2020 10:00:00 13,3 12,9 12,0 12,4 4 2 - - ESE 994,2 2,0 0 0,4
21.10.2020 09:00:00 13,2 12,8 - - 16 9 - - SSE 995,0 2,8 0 0,0
21.10.2020 08:00:00 12,8 12,4 - - 16 9 - - SSE 995,1 3,6 0 0,0
21.10.2020 07:00:00 12,5 12,1 - - 21 11 - - SSE 995,3 4,2 0 0,0
21.10.2020 06:00:00 12,1 11,7 - - 11 6 - - SSE 995,7 2,8 0 0,0
21.10.2020 05:00:00 11,9 11,3 - - 13 7 - - SSE 996,2 4,5 0 0,0
21.10.2020 04:00:00 12,7 11,9 - - 18 10 - - S 996,8 9 0 0,0
21.10.2020 03:00:00 13,4 12,4 - - 22 12 - - S 997,6 11 0 0,0
21.10.2020 02:00:00 13,0 12,2 - - 21 11 - - SSE 998,3 9 0 0,0
21.10.2020 01:00:00 13,3 12,4 - - 24 13 - - S 998,6 10 - 0,0
21.10.2020 00:00:00 13,0 12,1 - - 21 11 - - SSE 998,6 10 0 0,2
20.10.2020 23:00:00 13,2 11,9 - - 24 13 52 28 SSE 998,7 4,8 0 0,2
20.10.2020 22:00:00 13,4 11,7 - - 21 11 - - SSE 998,8 20 0 0,0
20.10.2020 21:00:00 13,7 11,7 - - 22 12 - - S 998,9 24 0 0,0
20.10.2020 20:00:00 13,3 12,0 - - 15 8 - - S 998,8 22 0 0,6
20.10.2020 19:00:00 14,1 11,8 - - 21 11 - - SW 998,7 3,7 0 0,0
20.10.2020 18:00:00 14,6 11,4 - - 21 11 - - S 998,6 24 0 0,0
20.10.2020 17:00:00 16,0 11,4 - - 28 15 50 27 S 998,4 10 24 0,0
20.10.2020 16:00:00 16,5 11,4 - - 31 17 - - S 998,4 10 24 0,0
20.10.2020 15:00:00 16,1 11,4 - - 26 14 - - S 998,8 10 0 0,0
20.10.2020 14:00:00 16,2 12,0 - - 28 15 48 26 S 998,7 10 6 0,0
20.10.2020 13:00:00 16,2 12,4 - - 34 18 48 26 S 999,1 10 42 0,0
20.10.2020 12:00:00 15,1 12,8 - - 28 15 - - S 999,4 25 48 0,0
20.10.2020 11:00:00 14,6 12,6 - - 26 14 - - S 999,1 30 42 0,0
20.10.2020 10:00:00 13,0 11,5 11,0 12,4 24 13 - - S 999,3 10 6 0,0
20.10.2020 09:00:00 12,2 10,9 - - 22 12 - - S 999,5 10 0 0,0
20.10.2020 08:00:00 10,8 9,4 - - 21 11 - - S 999,0 10 0 0,0
20.10.2020 07:00:00 10,4 8,9 - - 29 16 - - S 999,1 19 0 0,0
20.10.2020 06:00:00 9,8 8,6 - - 22 12 - - SSE 999,0 20 0 1,0
20.10.2020 05:00:00 9,3 8,1 - - 21 11 - - SSE 999,9 4,2 0 2,0
20.10.2020 04:00:00 9,4 7,7 - - 22 12 - - SE 1000,7 11 0 0,4
20.10.2020 03:00:00 10,1 7,2 - - 28 15 - - SSE 1001,7 23 0 0,0
20.10.2020 02:00:00 10,2 7,2 - - 35 19 52 28 SSE 1002,6 22 0 0,0
20.10.2020 01:00:00 10,3 7,2 - - 26 14 - - SSE 1004,2 21 - 0,0
20.10.2020 00:00:00 10,4 7,1 - - 29 16 48 26 SE 1004,6 19 0 0,0
19.10.2020 23:00:00 10,3 7,1 - - 34 18 46 25 SE 1005,6 19 0 0,0
19.10.2020 22:00:00 10,6 6,7 - - 29 16 46 25 SE 1006,9 21 0 0,0
19.10.2020 21:00:00 10,6 6,4 - - 29 16 - - SSE 1007,5 23 0 0,0
19.10.2020 20:00:00 11,2 6,4 - - 26 14 - - SSE 1008,7 24 0 0,0
19.10.2020 19:00:00 11,0 7,1 - - 21 11 - - SSE 1009,5 23 0 0,0
19.10.2020 18:00:00 11,5 7,5 - - 15 8 - - SSE 1009,8 25 0 0,0
19.10.2020 17:00:00 12,6 8,6 - - 18 10 - - SSE 1010,2 10 0 0,0
19.10.2020 16:00:00 12,9 8,9 - - 26 14 - - S 1010,8 20 0 0,0
19.10.2020 15:00:00 12,7 8,7 - - 28 15 - - S 1012,0 10 0 0,0
19.10.2020 14:00:00 12,5 8,3 - - 28 15 - - S 1013,1 10 0 0,0
19.10.2020 13:00:00 12,4 8,0 - - 28 15 - - S 1014,2 10 18 0,0
19.10.2020 12:00:00 12,0 8,7 - - 26 14 - - S 1015,1 10 12 0,0
19.10.2020 11:00:00 11,1 7,9 - - 24 13 - - S 1015,8 10 42 0,0
19.10.2020 10:00:00 9,8 8,0 11,0 12,4 21 11 - - S 1016,2 8 42 0,0
19.10.2020 09:00:00 7,6 6,7 - - 15 8 - - S 1016,9 7 0 0,0
19.10.2020 08:00:00 7,0 5,9 - - 13 7 - - S 1017,1 6 0 0,0
19.10.2020 07:00:00 8,4 6,5 - - 18 10 - - SSW 1017,5 10 0 0,0
19.10.2020 06:00:00 8,9 6,5 - - 18 10 - - SSW 1018,1 12 0 0,0
19.10.2020 05:00:00 9,4 6,5 - - 22 12 - - SSW 1018,4 14 0 0,0
19.10.2020 04:00:00 9,5 6,3 - - 18 10 - - SW 1019,0 10 0 0,0
19.10.2020 03:00:00 9,2 6,8 - - 16 9 - - SW 1019,6 10 0 0,0
19.10.2020 02:00:00 9,2 6,6 - - 18 10 - - SW 1020,3 10 0 0,0
19.10.2020 01:00:00 9,3 7,0 - - 15 8 - - SW 1020,6 10 - 0,0
19.10.2020 00:00:00 9,2 7,1 - - 13 7 - - SSW 1020,7 10 0 0,0
18.10.2020 23:00:00 9,2 7,5 - - 11 6 - - SSW 1021,1 10 0 0,0
18.10.2020 22:00:00 9,4 7,9 - - 11 6 - - SSW 1021,5 12 0 0,0
18.10.2020 21:00:00 8,8 7,6 - - 9 5 - - S 1021,9 9 0 0,0
18.10.2020 20:00:00 8,7 7,2 - - 5 3 - - SSE 1022,4 15 0 0,0
18.10.2020 19:00:00 8,8 6,8 - - 5 3 - - SE 1022,6 17 0 0,0
18.10.2020 18:00:00 9,1 6,6 - - 5 3 - - SSE 1022,3 20 0 0,0
18.10.2020 17:00:00 9,8 6,3 - - 8 4 - - SW 1022,3 20 0 0,0
18.10.2020 16:00:00 10,0 6,3 - - 8 4 - - W 1022,8 28 0 0,0
18.10.2020 15:00:00 10,2 5,9 - - 5 3 - - W 1023,1 22 0 0,0
18.10.2020 14:00:00 10,1 6,6 - - 9 5 - - W 1023,6 22 0 0,0
18.10.2020 13:00:00 10,0 6,7 - - 5 3 - - WNW 1024,2 23 0 0,0
18.10.2020 12:00:00 9,9 7,0 - - 9 5 - - NW 1024,8 18 0 0,0
18.10.2020 11:00:00 9,4 7,3 - - 11 6 - - NW 1024,8 16 0 0,0
18.10.2020 10:00:00 8,8 7,6 11,0 12,5 11 6 - - NW 1024,7 10 0 0,0
18.10.2020 09:00:00 8,4 7,7 - - 8 4 - - NW 1024,6 10 0 0,0
18.10.2020 08:00:00 8,5 7,6 - - 8 4 - - NW 1024,2 24 0 0,0
18.10.2020 07:00:00 8,6 7,9 - - 11 6 - - NNW 1023,9 15 0 0,0
18.10.2020 06:00:00 8,5 7,7 - - 11 6 - - NNW 1023,8 17 0 0,0
18.10.2020 05:00:00 8,6 7,8 - - 13 7 - - NNW 1023,9 10 0 0,0

tt = temperature
td = dewpoint
tt -20cm = temperature -20cm
tt -100cm = temperature -100cm
ff = wind speed
fx = gusts
dd = wind direction
ppp = reduced air pressure
vv = visibility
sd = sunshine duration
rr = precipitation

Next stations